Location: G�ppingen
(48.7089°N, 9.6563°E)
Time: 08:49:06
(UTC+02:00)

M-CUBED/EXP-1 PRIME - Pass Details

Date: 22 March 2019
Orbit: 430 x 671 km, 101.7° (Epoch: 22 April)

Event Time Altitude Azimuth Distance (km) Brightness Sun altitude
Rises 18:59:55 0° 40° (NE) 2,950 ? -4.7°
Reaches altitude 10° 19:03:52 10° 75° (ENE) 2,074 ? -5.3°
Maximum altitude 19:05:12 11° 93° (E) 2,004 ? -5.5°
Drops below altitude 10° 19:06:32 10° 110° (ESE) 2,088 ? -5.7°
Sets 19:10:32 0° 145° (SE) 3,008 ? -6.4°
